Volver al catálogo

MIDAS 5 DEB

ActivoPO
NORAD 274·DEBRIS·🇺🇸 United States

Lanzado Apr 9, 1962 desde Vandenberg Space Force Base

Loading…

Próximos Pases (próximas 24 horas)

TLE

ActualizadoSource: Space-Track

Época: Sep 14, 2026, 14:39 UTC

1 00274U 62010D   26257.61050551 -.00000048  00000-0 -10901-1 0  9993
2 00274  86.6708 320.7270 0345368  60.4080 303.0773  9.39363623209185

Sigue MIDAS 5 DEB en tiempo real con AllMySat

Download on the App Store